Regional Weather Roundup
Issued by NWS

Home | Current Version | Previous Version | Text Only | Print | Product List | Glossary On
Versions: 1 2 3 4 5 6 7 8 9 10 11 12 13 14 15 16 17 18 19 20 21 22 23 24 25 26 27 28 29 30 31 32 33 34 35 36 37 38 39 40 41 42 43 44 45 46 47 48 49 50
000
ASUS46 KLOX 271912
RWRCA

SOUTHERN CALIFORNIA WEATHER ROUNDUP
NATIONAL WEATHER SERVICE OXNARD CALIFORNIA
1200 PM PDT MON APR 27 2015

NOTE: "FAIR" INDICATES FEW OR NO CLOUDS BELOW 12,000 FEET WITH NO
SIGNIFICANT WEATHER AND/OR OBSTRUCTIONS TO VISIBILITY.

  -  STATIONS PRECEEDED BY AN ASTERISK (*) ARE NOT NWS OR FAA
     STATIONS AND ARE NOT SUBJECT TO NWS AND FAA QUALITY CONTROL.

CAZ041-042-087-272000-
LA AND ORANGE COUNTY COASTAL AREAS


CITY           SKY/WX    TMP DP  RH WIND       PRES   REMARKS
L.A. DOWNTOWN  SUNNY     82  42  24 W8        29.93F
L.A. AIRPORT   MOSUNNY   73  49  42 W12       29.95F
LONG BEACH     SUNNY     84  31  14 VRB5      29.94F

CITY           SKY/WX    TMP DP  RH WIND       PRES   REMARKS
AVALON           N/A     77 N/A N/A MISG        N/A
FULLERTON      SUNNY     86  28  12 W7        29.92F
*GETTY CENTER    N/A    N/A N/A N/A SW13G18     N/A
HAWTHORNE      SUNNY     79  45  29 W12       29.94F
*LEO CARRILLO    N/A     73  48  40 SW8         N/A
*LOS ALAMITOS  SUNNY     82  45  26 SW10      29.93F
*REDONDO BEACH   N/A     73  58  59 SW3       29.95F
SANTA ANA      SUNNY     87  14   6 NE20G25   29.93F
STA MONICA APT SUNNY     72  47  40 SW10      29.95F
*STA MON PIER    N/A     63  58  83 W6        29.95F
TORRANCE       SUNNY     82  41  23 NW14      29.95F
*UCLA            N/A     75  41  29 SW8G16    29.92F

$$

CAZ547-548-048-272000-
LA COUNTY VALLEYS AND INLAND EMPIRE


CITY           SKY/WX    TMP DP  RH WIND       PRES   REMARKS
BURBANK        SUNNY     85  19   9 N16G22    29.93F
VAN NUYS       SUNNY     84  22  10 N25G31    29.95S

CITY           SKY/WX    TMP DP  RH WIND       PRES   REMARKS
CORONA AIRPORT CLEAR     84  18   8 NE23G35   29.95F
*CHATSWORTH      N/A     81  29  15 NE6       29.96F
CHINO          SUNNY     84  25  11 N12G28    29.95S
MARCH AFB      SUNNY     80  14   8 N18G33    29.96F
*NORTHRIDGE      N/A     81  18   9 N6G15       N/A
ONTARIO        SUNNY     82  19   9 NE18G25   29.96S
*PASADENA        N/A     81  43  26 E1          N/A
RIVERSIDE      SUNNY     81  17   9 N14G28    29.96F
SAN BERNARDINO SUNNY    N/A N/A N/A MISG      29.95F
*SAN RAFAEL HI   N/A     80  38  22 E7          N/A
*SAUGUS          N/A     72  20  14 N20G39      N/A
*WHITEMAN AP   NOT AVBL
*WOODLAND HILL   N/A     82  21  10 N12G20      N/A

$$

CAZ054-055-272000-
LA AND SAN BERNARDINO COUNTY MOUNTAINS


CITY           SKY/WX    TMP DP  RH WIND       PRES   REMARKS
*BIG BEAR AIRP CLEAR     50  10  20 E7G16     30.18F
MT WILSON NWS    N/A     64  32  29 MISG        N/A
SANDBERG       SUNNY     67  22  18 E22G33    30.14R

$$

CAZ028-029-059-060-099-272000-
ANTELOPE VALLEY AND SURROUNDING AREAS


CITY           SKY/WX    TMP DP  RH WIND       PRES   REMARKS
LANCASTER      SUNNY     73  20  13 NE21G29   30.07F
PALMDALE       SUNNY     73  18  12 NE21G32   30.07F
*POPPY PARK      N/A     76  23  14 E17G32      N/A

CITY           SKY/WX    TMP DP  RH WIND       PRES   REMARKS
29 PALMS       MOSUNNY   72  19  13 N17G23    30.11F
BARSTOW/DAGGET SUNNY     74  13   9 N13G18    30.08F
BISHOP         SUNNY     72  20  14 N14G25    30.16F
CHINA LAKE     MOSUNNY   78  17  10 N17G32    30.05F
EDWARDS AFB    MOSUNNY   74  16  10 NE17G29   30.05F
MOJAVE         FAIR      72  23  16 NE13G25   30.08F
NEEDLES        SUNNY     81  23  11 N22G29    29.98F
VICTORVILLE    SUNNY     72  14  11 NE20G31   30.10F

$$

CAZ039-040-272000-
VENTURA AND SANTA BARBARA COUNTY COAST


CITY           SKY/WX    TMP DP  RH WIND       PRES   REMARKS
CAMARILLO      SUNNY     88  26  10 E18G30    29.94F
NWS OXNARD       N/A     86  30  13 CALM      29.93F
OXNARD AIRPORT SUNNY     77  46  33 W14       29.96R
*POINT MUGU    MOSUNNY   82  40  22 SW10      29.96S
SBA APT/GOLETA SUNNY     73  47  39 VRB7      29.98S
*SANTA BARBARA   N/A     79  39  23 CALM      30.05S
*VENTURA         N/A     84  42  23 E7        29.99S

$$

CAZ044-045-272000-
VENTURA COUNTY VALLEYS


CITY           SKY/WX    TMP DP  RH WIND       PRES   REMARKS
*SIMI VALLEY     N/A     81  31  16 NE9       29.91F
*OJAI            N/A     85  44  23 W1        29.88F
*FILLMORE        N/A     85  40  21 CALM      29.86S

$$

CAZ053-272000-
VENTURA COUNTY MOUNTAINS


CITY           SKY/WX    TMP DP  RH WIND       PRES   REMARKS
*LOCKWOOD VLY    N/A     61  25  25 MISG        N/A
*ROSE VALLEY     N/A     72  36  26 MISG        N/A

$$

CAZ034-035-036-272000-
CENTRAL COAST AND SANTA YNEZ VALLEY


CITY           SKY/WX    TMP DP  RH WIND       PRES   REMARKS
SAN LUIS OBISP SUNNY     82  44  26 VRB5      29.96F
SANTA MARIA    SUNNY     81  44  27 W7        29.98F

CITY           SKY/WX    TMP DP  RH WIND       PRES   REMARKS
*CAL POLY SLO    N/A     81  52  36 E6G12       N/A
*LOMPOC        SUNNY     73  48  40 W14       30.00R
*PISMO BEACH     N/A     63  55  74 S3        29.98F
*SANTA YNEZ    FAIR      81  36  19 W6        29.98F

$$

CAZ037-038-051-272000-
SAN LUIS OBISPO COUNTY INTERIOR AND CUYAMA VALLEY


CITY           SKY/WX    TMP DP  RH WIND       PRES   REMARKS
*CUYAMA          N/A     75  41  29 NE2       29.96F
PASO ROBLES    SUNNY     79  41  25 VRB3      30.00F

$$

CAZ032-033-061-272000-
SOUTHERN DESERTS


CITY           SKY/WX    TMP DP  RH WIND       PRES   REMARKS
BLYTHE         SUNNY     83  26  12 N16G23    29.93F
IMPERIAL       SUNNY     82  24  12 N14       29.94F
PALM SPRINGS   SUNNY     84  13   7 NE9G20    29.98F
THERMAL        SUNNY     83  17   8 VRB5G16   29.93F

$$

ELSEWHERE ACROSS THE WESTERN UNITED STATES AND MEXICO


CITY           SKY/WX    TMP DP  RH WIND       PRES   REMARKS
DENVER, CO     CLOUDY    43  39  86 N7        30.28R
GRAND CANYON,  SUNNY     55  31  39 NE13      30.15S
HONOLULU, HI   MOSUNNY   72  63  73 NE15G26   30.07S
KAHULUI, MAUI  LGT RAIN  73  68  83 NE23G30   30.10R
LAKE TAHOE, CA SUNNY     57  25  29 NE9G18    30.25S
LAS VEGAS, NV  SUNNY     73  20  13 MISG      30.04F
MAMMOTH LAKES, FAIR      57  21  24 W8G16     30.28F
MEXICO CITY, M PTSUNNY   79  39  24 CALM      30.16F
PHOENIX, AZ    MOSUNNY   77  38  24 CALM      29.89F
PORTLAND, OR   MOSUNNY   66  54  65 NW7       30.15F
RENO, NV       MOSUNNY   64  25  22 E14       30.25F
SALT LAKE CITY MOSUNNY   57  38  48 NW9       30.23F
SAN DIEGO, CA  SUNNY     75  46  35 NW7       29.94F
SAN FRANCISCO, MOSUNNY   74  52  46 N3        30.01F
SAN JOSE, CA   MOSUNNY   77  49  37 VRB6      30.01F
SEATTLE, WA    PTSUNNY   68  52  56 S3        30.20F
TIJUANA, MEX   SUNNY     81  28  15 NW8       29.95F

$$

STATION/POSITION TIME  TEMP    WIND        PRES    VSBY  WAVE
                       AIR SEA DIR/SP/G                  HT/PER
                 (UTC) (F)     (DEG/KT/KT) (MB)    (MI)  (FT/S)
POINT ARGUELLO B NOT AVBL
WEST SANTA BARBA 1900   55 53  320/ 12/ 12 1015.2S         5/ 8
POINT CONCEPTION NOT AVBL
EAST SANTA BARBA NOT AVBL
SANTA MONICA BAY 1900   62 63  270/  8/  8 1014.9F         3/ 8


USA.gov is the U.S. government's official web portal to all federal, state and local government web resources and services.